Other Public Products
Issued by NWS Grand Forks, ND

Home | Current Version | Previous Version | Graphics & Text | Print | Product List | Glossary On
Versions: 1 2 3 4 5 6 7 8 9 10 11 12 13 14 15 16 17 18 19 20 21 22 23 24 25 26 27 28 29 30 31 32 33 34 35 36 37 38 39 40 41 42 43 44 45 46 47 48 49 50
000
FPUS83 KFGF 312310
OPUFGF
PRAIRIE TO PINES WEATHER ROUNDUP
NATIONAL WEATHER SERVICE EASTERN NORTH DAKOTA/GRAND FORKS ND
600 PM CDT TUE MAY 31 2016

 **SATELLITE DATA USED TO AUGMENT SKY COVER AT AUTOMATED STATIONS**
 *****  WEATHER ACROSS EASTERN NORTH DAKOTA  *****

CITY           SKY/WX    TMP DP  RH WIND       PRES   REMARKS
GRAND FORKS    MOSUNNY   67  49  52 S12       29.66F
GRAND FORKS AF MOSUNNY   65  48  55 S15       29.65F
GRAND CITY NWS   N/A     66 N/A N/A S23         N/A
BUXTON           N/A     66  49  52 S9          N/A
DEVILS LAKE    CLOUDY    59  45  58 SW15      29.65R THUNDER
FARGO          SUNNY     71  45  39 S20G28    29.68F
WAHPETON ARPT  PTCLDY    70  41  35 SW17G26   29.73F
$$

 *****  WEATHER ACROSS CENTRAL AND WESTERN NORTH DAKOTA  *****

CITY           SKY/WX    TMP DP  RH WIND       PRES   REMARKS
JAMESTOWN      LGT RAIN  58  51  78 SW7       29.64F
BISMARCK       MOSUNNY   62  51  67 NW10      29.67R
MINOT          CLOUDY    60  52  74 NW25G33   29.68R
MINOT AFB      CLOUDY    55  51  87 N22G31    29.67R
GARRISON         N/A     57  52  83 NW32G38   29.67R
WILLISTON      LGT RAIN  54  49  83 NW21G26   29.89R
DICKINSON      LGT RAIN  49  46  90 NW23G38   29.85R
HETTINGER      LGT RAIN  51  47  86 NW25G39   29.89R FOG
$$

 *****  OTHER OBSERVATIONS NORTHEAST NORTH DAKOTA  *****

CITY           SKY/WX    TMP DP  RH WIND       PRES   REMARKS
WALHALLA       FAIR      59  57  94 SE13G24   29.64R
LANGDON        MOCLDY    61  54  77 S13       29.64F
CAVALIER       MOCLDY    66  50  55 S18       29.64S
GRAFTON        FAIR      66  48  52 S13       29.67F
CANDO          NOT AVBL
FORT TOTTEN      N/A     55  41  60 S8        29.95
ROLLA          MOCLDY    63  50  63 S7        29.64R
RUGBY          FAIR      64  50  59 CALM      29.61S
 ***** THE ABOVE OBSERVATIONS ARE NON NWS ARE NOT QUALITY
        CONTROLLED AND MAY MIS-REPORT RAIN FOR SNOW...
$$

 *****  OTHER OBSERVATIONS SOUTHEAST NORTH DAKOTA *****

CITY           SKY/WX    TMP DP  RH WIND       PRES   REMARKS
COOPERSTOWN    NOT AVBL
VALLEY CITY    FAIR      57  57 100 SW6       29.68S
OAKES            N/A    N/A N/A N/A MISG        N/A
GWINNER        MOCLDY    66  46  48 SW26      29.68F
SHEYENNE NWR     N/A     68  45  44 SW17      29.95S
BUFFALO          N/A     61  47  61 S5          N/A
WYNDMERE         N/A     70  45  40 SW16        N/A
 ***** THE ABOVE OBSERVATIONS ARE NON NWS ARE NOT QUALITY
       CONTROLLED AND MAY MIS-REPORT RAIN FOR SNOW...
$$

  *****  WEATHER ACROSS NORTHERN MINNESOTA  *****

CITY           SKY/WX    TMP DP  RH WIND       PRES   REMARKS
FLAG ISLAND    CLOUDY    54  52  94 E13G20    29.76S
WARROAD        CLOUDY    55  52  88 E12       29.75S
ROSEAU         PTSUNNY   61  55  82 E13G18    29.72S
HALLOCK        CLOUDY    66  52  59 S20       29.67S
THF RVR FALLS  MOSUNNY   66  46  48 S16       29.72S
HALSTAD        NOT AVBL
FOSSTON        MOSUNNY   64  46  52 S15G22    29.73F
BAUDETTE       CLOUDY    55  52  89 E15       29.77S
WASKISH        PTSUNNY   63  55  77 E12       29.75F
CROOKSTON      PTSUNNY   68  52  56 SW16      29.69F
$$
  *****  WEATHER ACROSS CENTRAL AND WEST MINNESOTA  *****

CITY           SKY/WX    TMP DP  RH WIND       PRES   REMARKS
BEMIDJI        SUNNY     66  48  50 SW13G18   29.75S
PARK RAPIDS    PTSUNNY   69  47  45 SW14      29.77S
WADENA         MOSUNNY   66  46  48 SW12      29.78F
DETROIT LAKES  MOSUNNY   68  45  42 SW16G26   29.75F
MOORHEAD       MOSUNNY   70  46  43 S14G20    29.70F
FERGUS FALLS   PTSUNNY   70  48  46 SW20G25   29.72F
ELBOW LAKE     CLOUDY    67  46  47 SW18G24   29.78F
MORRIS MN      MOSUNNY   70  46  43 SW12      29.78F
STAPLES        MOSUNNY   70  46  43 SW15G21   29.79S
WHEATON        MOSUNNY   72  48  43 SW17      29.76F
$$
  *****  WEATHER ELSEWHERE ACROSS MINNESOTA  *****

CITY           SKY/WX    TMP DP  RH WIND       PRES   REMARKS
DULUTH         CLOUDY    47  45  93 E10       29.88S
INTRNTL FALLS  CLOUDY    53  51  93 SE12      29.81F FOG
ELY            CLOUDY    52  48  87 SE5       29.88F
CLOQUET        CLOUDY    46  43  87 E9G16     29.88R
BRAINERD       MOSUNNY   71  50  47 SW12      29.79F
HIBBING        CLOUDY    53  51  93 SE13      29.84F
ALEXANDRIA     SUNNY     69  45  41 SW15      29.81F
SAINT CLOUD    CLOUDY    73  51  46 SW15      29.81S
MINNEAPOLIS    CLOUDY    72  56  57 SW9       29.83F
$$

  *****  WEATHER ACROSS SOUTH DAKOTA  *****

CITY           SKY/WX    TMP DP  RH WIND       PRES   REMARKS
SIOUX FALLS    MOSUNNY   72  47  40 SW7       29.86F
BROOKINGS      NOT AVBL
WATERTOWN      PTSUNNY   70  43  37 SW25G36   29.78F
HURON          MOSUNNY   72  45  37 W28G41    29.81F
SISSETON         N/A     69  46  43 W17G26    29.73F
ABERDEEN       CLOUDY    66  48  52 SW33G40   29.72F
MITCHELL       MOSUNNY   75  48  38 NW17      29.83F
PIERRE         MOSUNNY   66  46  48 W32G46    29.85S
MOBRIDGE       CLOUDY    61  47  59 W29G41    29.71S
RAPID CITY     CLOUDY    61  41  47 NW24G32   30.01R
$$

  *****  SOME WEATHER IN NEARBY STATES *****

CITY           SKY/WX    TMP DP  RH WIND       PRES   REMARKS
GLASGOW MT     PTSUNNY   62  47  57 NW20      30.00F
GREAT FALLS MT SUNNY     64  33  31 NW7       30.16F
CHEYENNE WY    CLOUDY    58  43  57 SE3       30.11S
SCOTTSBLUFF NE PTSUNNY   69  32  25 NW14G26   30.02F
OMAHA NE       PTSUNNY   78  55  44 N8        29.89F
DES MOINES IA  CLOUDY    69  63  81 N3        29.90R
DAVENPORT IA   PTSUNNY   75  64  68 SE12      29.91F
CHICAGO IL     LGT RAIN  66  63  90 NE10      29.98F
EAU CLAIRE WI  RAIN      63  61  93 E8        29.87R
LA CROSSE WI   RAIN      65  63  93 E8        29.88F FOG
$$

  *****  SOME NATIONAL WEATHER *****

CITY           SKY/WX    TMP DP  RH WIND       PRES   REMARKS
LA GUARDIA NY  MOSUNNY   79  68  69 SW12      29.92R
RALEIGH NC     PTSUNNY   82  66  58 NE10      29.93R
ATLANTA GA     PTSUNNY   90  61  37 SE7       29.90S HX  90
NEW ORLEANS LA PTSUNNY   84  69  60 S10       29.86F
OKLAHOMA CITY  TSTM      67  62  84 CALM      29.88R
ALBUQUERQUE NM CLOUDY    75  31  19 E15       29.97R
SALT LAKE CITY MOSUNNY   77  27  15 N10G18    30.03F
LOS ANGELES CA CLOUDY    66  57  72 SW12      29.85F
BOISE ID       SUNNY     79  19  10 VRB6      30.03F
SEATTLE WA     PTSUNNY   79  44  28 NW7       30.01F
$$

*** WEATHER ACROSS MANITOBA...SASKATCHEWAN AND ONTARIO ***
                ***ONTARIO***

CITY           SKY/WX    TMP DP  RH WIND       PRES   REMARKS
GERALDTON      CLOUDY    61  34  36 E13       30.08F
THUNDER BAY    LGT RAIN  50  41  71 E14       30.01F
SIOUX LOOKOUT  LGT RAIN  48  46  93 E8        29.94F FOG
TORONTO        PTSUNNY   70  48  46 N21G26    30.02S
BIG TROUT LK   SUNNY     54  32  43 E9G17     30.17S
PICKLE LAKE    CLOUDY    57  32  38 E17       30.04F
DRYDEN         CLOUDY    48  45  87 E13G23    29.88F
KENORA         CLOUDY    50  48  93 SE12G18   29.81F FOG
$$
                *** MANITOBA***

CITY           SKY/WX    TMP DP  RH WIND       PRES   REMARKS
BRANDON        CLOUDY    52  48  87 NE26G38   29.69R
DAUPHIN        LGT RAIN  50  48  93 NE24G35   29.84S FOG
ISLAND LAKE    CLOUDY    57  32  38 E12G18    30.06F
PILOT MOUND      N/A     63  54  72 S9          N/A
THE PAS        CLOUDY    63  36  36 E7        30.02F
THOMPSON       PTSUNNY   59  30  33 SE7       30.10F
WINNIPEG       CLOUDY    57  54  88 E20G26    29.69R
LYNN LAKE      PTSUNNY   61  39  44 SE6       30.07F
CHURCHILL      MOSUNNY   41  28  60 SE18      30.28F
GILLAM         PTSUNNY   52  30  43 E7        30.18F
$$
                ***SASKATCHEWAN***

CITY           SKY/WX    TMP DP  RH WIND       PRES   REMARKS
ESTEVAN        SHOWER    52  50  93 N17G29    29.84R FOG
KINDERSLEY     PTSUNNY   61  46  59 NW10G17   30.06F
LLOYDMINSTER   PTSUNNY   66  43  42 NW14      30.06F
PRINCE ALBERT  PTSUNNY   61  43  51 NE9       30.03F
REGINA         CLOUDY    55  50  82 N14       29.96S
YORKTON        LGT RAIN  48  45  87 N22G28    29.93R   C1F1C2F2C3F3C4F4C5F5C6F6C7F7C8F8C9F9CaFaCbFbCcFcCdFdCe!


USA.gov is the U.S. government's official web portal to all federal, state and local government web resources and services.